Location: Franzen
(48.6167°N, 15.3833°E)
Time: 02:14:38
(UTC+00:00)

ISS - Pass Details

Date: 30 June 2021
Orbit: 419 x 421 km, 51.6° (Epoch: 02 August)

Event Time Altitude Azimuth Distance (km) Brightness Sun altitude
Exits shadow 01:31:57 13° 182° (S) 1,337 -1.7 -10.8°
Maximum altitude 01:33:55 20° 140° (SE) 1,038 -1.9 -10.6°
Drops below altitude 10° 01:36:27 10° 91° (E) 1,502 -0.5 -10.4°
Sets 01:38:55 0° 74° (ENE) 2,369 1.0 -10.1°
